Regional Weather Roundup
Issued by NWS Charleston, WV

Home | Current Version | Previous Version | Text Only | Print | Product List | Glossary Off
Versions: 1 2 3 4 5 6 7 8 9 10 11 12 13 14 15 16 17 18 19 20 21 22 23 24 25 26 27 28 29 30 31 32 33 34 35 36 37 38 39 40 41 42 43 44 45 46 47 48 49 50

000
ASUS41 KRLX 251910
RWRRLX
West Virginia Regional Weather Roundup
National Weather Service Charleston WV
300 PM EDT SUN SEP 25 2016

Note: "fair" indicates few or no clouds below 12,000 feet with no
significant weather and/or obstructions to visibility.

WVZ003-252000-
Northern Panhandle of West Virginia

CITY           SKY/WX    TMP DP  RH WIND       PRES   REMARKS
WHEELING       SUNNY     75  48  38 CALM      30.13F
$$

WVZ009-252000-
Northwest West Virginia

CITY           SKY/WX    TMP DP  RH WIND       PRES   REMARKS
PARKERSBURG    SUNNY     83  41  22 VRB5      30.11F
$$

WVZ006-252000-
Western West Virginia

CITY           SKY/WX    TMP DP  RH WIND       PRES   REMARKS
HUNTINGTON     MOSUNNY   86  60  41 N6        30.08F
$$

WVZ015-252000-
West Central West Virginia

CITY           SKY/WX    TMP DP  RH WIND       PRES   REMARKS
CHARLESTON     MOSUNNY   86  58  38 N6        30.08F
$$

WVZ022-031-252000-
North Central West Virginia

CITY           SKY/WX    TMP DP  RH WIND       PRES   REMARKS
CLARKSBURG     SUNNY     79  37  22 VRB3      30.11F
MORGANTOWN     SUNNY     79  46  31 VRB3      30.13F
$$

WVZ025-035-042-045-252000-
Southern West Virginia

CITY           SKY/WX    TMP DP  RH WIND       PRES   REMARKS
BECKLEY        PTSUNNY   82  60  47 NW10      30.14F
LOGAN            N/A     82  63  51 W5        30.10F
BLUEFIELD      CLOUDY    79  61  53 CALM      30.17F
LEWISBURG      PTSUNNY   78  59  51 CALM      30.13F
$$

WVZ047-252000-
Northern Mountains of West Virginia

CITY           SKY/WX    TMP DP  RH WIND       PRES   REMARKS
ELKINS         SUNNY     81  43  26 NW9       30.13F
$$

WVZ052-252000-
Eastern Panhandle of West Virginia

CITY           SKY/WX    TMP DP  RH WIND       PRES   REMARKS
MARTINSBURG    SUNNY     73  47  39 CALM      30.15F
PETERSBURG     SUNNY     76  56  48 NW5       30.11F
$$




USA.gov is the U.S. government's official web portal to all federal, state and local government web resources and services.